Location: Kosice
(0.0000°N, 21.2500°E)
Time: 18:22:49
(UTC+01:00)

ARIANE 5 R/B - Pass Details

Date: 24 January 2021
Orbit: 274 x 33378 km, 1.2° (Epoch: 01 March)

Event Time Altitude Azimuth Distance (km) Brightness Sun altitude
Rises 18:50:53 0° 270° (W) 5,828 8.4 -15.0°
Reaches altitude 10° 18:56:48 10° 270° (W) 2,886 6.6 -16.4°
Maximum altitude 19:01:55 80° 182° (S) 420 1.2 -17.6°
Enters shadow 19:02:20 57° 108° (ESE) 451 1.1 -17.7°
